COSMOS 1275 DEB, 12713

Orbit data source: Space-Track

COSMOS 1275 DEB, 12713 is space debris in LEO originally from a launch on Thu, 04 Jun 1981 UTC launched from the Plesetsk Missile And Space Complex (PKMTR). Debris objects in space refer to the collection of defunct objects orbiting the Earth. Examples of debris include non-operational satellites, rocket bodies, and fragments generated from explosions, collisions, or faulty payload assembly.

Loading next visibility...
Identifier
12713, 1981-053BH
Orbit
LEO
Country
Flag of CISCIS
Related business
Manufacturer
Unknown
Mission
Spacecraft
Bus & Motor
Unknown
Mass
Unknown
Launch date (UTC)
1981-06-04 (44 years ago)
Launch vehicle
Unknown
Launch site
Plesetsk Missile And Space Complex (PKMTR)
Object type
Payload
Rocket body
Debris
Shape & HBR
Unknown shape, 0.1 m
Radar Cross Section
Small (<0.1 m²)

Expand to show TLE details & history
Last TLE update: 17 hours ago

TLE from 17 hours ago
0 COSMOS 1275 DEB
1 12713U 81053BH  25286.32596071  .00008117  00000-0  31237-2 0  9992
2 12713  82.9467 231.4572 0014176 164.3033 195.8596 14.30202117255674
Epoch: 2025-10-13T07:49Z
TLE epoch observation values (Epoch: 2025-10-13T07:49:23.005Z)
Latitude
-0.00005°
Longitude
91.98099°
Altitude
803.811 km
Speed
7.446 km/s
True Right ascension
15h 25m 49s
True Declination
0° 00' 00"
Sunlit
Object was in daylight at epoch
Visualization orbit readout
Latitude
Unknown
Longitude
Unknown
Altitude
Unknown
Speed
Unknown
Apparent Right ascension
Unknown
Apparent Declination
Unknown
Sunlit
N/A
Visualization observer readout
Local Sidereal Time
19:21:08
Azimuth
Unknown
Elevation
Unknown
Doppler factor
Unknown
Orbital elements
Apogee altitude
798.287 km
Perigee altitude
777.969 km
Semi-major axis
7,166.265 km
Eccentricity
0.00142
Inclination
82.9467°
RAAN
231.4572°
Arg. of periapsis
164.3033°
True anomaly
195.81528°
Mean anomaly
195.8596°
Eccentric anomaly
195.83743°
Mean motion
3.5777 °/min
Orbital period
100.62 mins
BSTAR
0.0031237
Loading maneuver chart data...
Computing Atmospheric mass density...
Loading historical data...
Loading historical data...
Loading historical data...
Loading historical data...
Loading historical data...
Loading historical data...
Loading historical data...

Documentation

Showing up to 5 results
|